Burnet, TX

10:29 AM CDT on August 22, 2017 (GMT -0500)
Burnet Municipal-Craddock

Weather History for KBMQ - December, 2010

Change the Weather History Date:

Tuesday, December 7, 2010

  Actual Average Record
Temperature  
Mean Temperature 44 °F -  
Max Temperature 54 °F 59 °F 77 °F (2007)
Min Temperature 33 °F 39 °F 21 °F (2005)
Degree Days  
Heating Degree Days 22    
Moisture  
Dew Point 29 °F    
Average Humidity 54    
Maximum Humidity 80    
Minimum Humidity 32    
Precipitation  
Precipitation 0.00 in - - ()
Sea Level Pressure  
Sea Level Pressure 30.14 in    
Wind  
Wind Speed 4 mph (South)    
Max Wind Speed 13 mph    
Max Gust Speed 20 mph    
Visibility 10 miles    
Events      
Averages and records for this station are not official NWS values.
T = Trace of Precipitation, MM = Missing Value Source: NWS Daily Summary

Daily Weather History Graph

Daily Weather History Graph

Search for Another Location

Airport or City:

Trip Planner

Search our weather history database for the weather conditions in past years. The results will help you decide how hot, cold, wet, or windy it might be!

Date:

Astronomy

Dec. 07, 2010 Rise Set
Actual Time 7:17 AM CST 5:31 PM CST
Civil Twilight 6:51 AM CST 5:57 PM CST
Nautical Twilight 6:21 AM CST 6:27 PM CST
Astronomical Twilight 5:51 AM CST 6:57 PM CST
Moon 9:03 AM CST (12/7) 7:32 PM CST (12/7)
Length of Visible Light 11h 06m
Length of Day
10h 13m
Waxing Crescent, 5% of the Moon is Illuminated
Dec 7
Waxing Crescent
Dec 13
First Quarter
Dec 21
Full
Dec 27
Last Quarter
Jan 4
New

Hourly Weather History & Observations

Time (CST) Temp. Windchill Dew Point Humidity Pressure Visibility Wind Dir Wind Speed Gust Speed Precip Events Conditions
12:54 AM 34.0 °F 29.8 °F 19.0 °F 54% 30.28 in - NNE 4.6 mph - N/A   Unknown
2:53 AM 34.0 °F - 18.0 °F 52% 30.25 in 10.0 mi Calm Calm - N/A   Clear
3:53 AM 33.1 °F - 19.0 °F 56% 30.24 in 10.0 mi Calm Calm - N/A   Clear
4:53 AM 35.1 °F - 19.0 °F 52% 30.22 in 10.0 mi Calm Calm - N/A   Clear
5:53 AM 36.0 °F - 19.0 °F 50% 30.22 in 10.0 mi Calm Calm - N/A   Clear
6:53 AM 36.0 °F - 21.0 °F 55% 30.22 in 10.0 mi Calm Calm - N/A   Clear
7:53 AM 36.0 °F - 21.0 °F 55% 30.21 in 10.0 mi Calm Calm - N/A   Clear
8:53 AM 43.0 °F 38.2 °F 24.1 °F 47% 30.20 in 10.0 mi SSE 8.1 mph - N/A   Clear
9:53 AM 46.9 °F - 24.1 °F 41% 30.18 in 10.0 mi South 9.2 mph - N/A   Clear
10:53 AM 51.1 °F - 23.0 °F 33% 30.17 in 10.0 mi South 12.7 mph 19.6 mph N/A   Clear
11:53 AM 53.1 °F - 24.1 °F 32% 30.15 in 10.0 mi South 12.7 mph - N/A   Overcast
12:53 PM 54.0 °F - 27.0 °F 35% 30.10 in 10.0 mi South 11.5 mph 17.3 mph N/A   Overcast
1:53 PM 54.0 °F - 30.0 °F 40% 30.07 in 10.0 mi South 10.4 mph - N/A   Overcast
2:53 PM 53.1 °F - 34.0 °F 48% 30.06 in 10.0 mi South 10.4 mph - N/A   Overcast
3:53 PM 53.1 °F - 35.1 °F 50% 30.04 in 10.0 mi SSE 8.1 mph 16.1 mph N/A   Overcast
4:41 PM 53.6 °F - 37.4 °F 54% 30.05 in 10.0 mi SSE 8.1 mph - N/A   Overcast
4:53 PM 53.1 °F - 37.0 °F 55% 30.05 in 10.0 mi South 6.9 mph - N/A   Overcast
5:14 PM 53.6 °F - 37.4 °F 54% 30.06 in 10.0 mi South 4.6 mph - N/A   Overcast
5:53 PM 53.1 °F - 39.0 °F 59% 30.07 in 10.0 mi South 4.6 mph - N/A   Overcast
6:53 PM 52.0 °F - 39.0 °F 61% 30.09 in 10.0 mi SSE 3.5 mph - N/A   Partly Cloudy
7:54 PM 50.0 °F - 39.9 °F 68% 30.11 in 10.0 mi South 3.5 mph - N/A   Unknown
8:53 PM 48.0 °F - 39.9 °F 74% 30.11 in 10.0 mi South 3.5 mph - N/A   Clear
10:53 PM 45.0 °F 43.5 °F 39.0 °F 80% 30.13 in 10.0 mi West 3.5 mph - N/A   Clear
11:53 PM 43.0 °F - 37.0 °F 80% 30.12 in 10.0 mi Calm Calm - N/A   Clear